Weather in Shangala

Russia / Stavropol Krai     45°31′20″N   42°40′27″E
temp.,
°C
wind,
m/s
gust,
m/s
humid.,
%
clouds,
%
prec.,
mm/h
press.,
hPa
HPBL,
m
25 october, mon
mon2500:00+7nnw8986100 1.7 1021936
03:00+4nnw5894100 5.9 1023713
06:00+4nw5793100 2.4 1025541
09:00+6wnw787296 2.8 1027895
12:00+9nw6755100 0.1 10271561
15:00+8wnw5652100 0.1 10281358
18:00+7nw356193 0.1 1030470
21:00+5nw22695 0.1 103125
26 october, tue
tue2600:00+3n227034 0.0 103215
03:00+2ne22655 0.0 103317
06:00+1ene22635 0.0 103311
09:00+4ene235042 0.0 1034326
12:00+7ne22400 0.0 10331015
15:00+8ne32350 0.0 10311124
18:00+5ene35470 0.0 103277
21:00+3e37545 0.0 1032128
27 october, wed
wed2700:00+2ese37575 0.0 1032134
03:00+2ese48615 0.0 1031155
06:00+1ese410665 0.0 1031215
09:00+5se611520 0.0 1030476
12:00+10se78390 0.0 1027819
15:00+11se68340 0.0 1026890
18:00+6ese410480 0.0 1026231
21:00+5se411590 0.0 1025240
28 october, thu
thu2800:00+4se410680 0.0 1024203
03:00+3sse38860 0.0 1024139
06:00+3s22870 0.0 102422
09:00+7wsw34620 0.0 1024280
12:00+12wnw45440 0.0 1023766
15:00+13wnw55400 0.0 1022959
18:00+8wnw33540 0.0 102335
21:00+6w34590 0.0 102346
29 october, fri
fri2900:00+5w34635 0.0 102349
03:00+4w346765 0.0 102450
06:00+4w3368100 0.0 102444
09:00+7w345289 0.0 1025211
12:00+12wnw33312 0.0 1024791
15:00+13nnw33310 0.0 1024984
18:00+9n11440 0.0 102610
21:00+8sse11480 0.0 102710